CDT,Max TemperatureF,Mean TemperatureF,Min TemperatureF,Max Dew PointF,MeanDew PointF,Min DewpointF,Max Humidity, Mean Humidity, Min Humidity, Max Sea Level PressureIn, Mean Sea Level PressureIn, Min Sea Level PressureIn, Max VisibilityMiles, Mean VisibilityMiles, Min VisibilityMiles, Max Wind SpeedMPH, Mean Wind SpeedMPH, Max Gust SpeedMPH,PrecipitationIn, CloudCover, Events, WindDirDegrees
2012-10-1,66,62,59,61,58,55,100,89,73,29.75,29.67,29.61,10,8,2,16,8,,0.00,7,Rain,9
2012-10-2,75,63,51,55,52,46,100,78,38,29.95,29.82,29.74,10,10,10,10,6,,0.00,1,,296
2012-10-3,77,64,50,59,54,48,100,78,47,30.14,30.04,29.96,10,10,10,9,2,,0.00,2,,163
2012-10-4,82,68,55,64,59,55,100,81,45,30.25,30.18,30.14,10,10,9,8,1,,0.00,1,,202
2012-10-5,80,64,46,64,60,45,100,84,58,30.17,30.10,29.95,10,8,2,16,3,,0.00,4,Rain,160
2012-10-6,55,50,44,46,42,36,93,82,51,30.23,30.18,30.13,10,10,6,13,9,,0.00,7,Rain,4
2012-10-7,57,50,42,45,41,37,93,75,48,30.27,30.22,30.18,10,10,10,9,6,,0.00,6,,345
2012-10-8,64,54,42,46,43,39,100,74,42,30.26,30.20,30.14,10,10,7,8,2,,0.00,5,,346
2012-10-9,66,52,37,54,45,37,100,77,49,30.16,30.09,29.99,10,9,0,10,2,,0.00,2,,155
2012-10-10,66,58,48,55,46,36,94,68,35,30.26,30.16,30.05,10,10,10,15,3,,0.00,4,,356
2012-10-11,60,56,51,57,45,36,100,72,54,30.30,30.23,30.19,10,10,10,7,4,,0.00,8,Rain,81
2012-10-12,73,65,57,66,61,57,100,95,78,30.29,30.21,30.16,10,8,0,6,2,,0.00,6,Fog,55
2012-10-13,82,72,62,68,64,63,100,82,51,30.21,30.13,30.01,10,5,0,12,3,,0.00,5,Fog,159
2012-10-14,75,70,62,66,63,55,94,79,65,29.98,29.94,29.89,10,10,6,18,11,30,0.00,4,Rain,196
2012-10-15,78,64,50,55,52,46,100,73,32,30.07,30.01,29.97,10,10,2,7,2,,0.00,0,,331
2012-10-16,77,64,51,55,53,50,100,78,47,29.99,29.91,29.81,10,10,5,9,2,,0.00,2,,173
2012-10-17,80,68,57,66,58,52,94,75,54,29.81,29.69,29.45,10,10,6,18,8,23,0.00,4,Rain-Thunderstorm,157
2012-10-18,71,61,51,55,47,36,100,71,28,29.83,29.77,29.70,10,10,6,22,5,,0.00,2,,255
2012-10-19,66,58,48,46,40,37,93,55,40,29.88,29.78,29.73,10,10,7,17,10,,0.00,3,,261
2012-10-20,71,56,41,48,45,41,100,76,35,29.98,29.92,29.88,10,10,3,7,1,,0.00,0,,137
2012-10-21,80,64,48,55,50,46,93,65,39,30.05,30.00,29.96,10,10,10,9,3,,0.00,2,,142
2012-10-22,82,70,57,59,53,48,88,63,30,30.13,30.07,30.03,10,10,10,10,5,,0.00,1,,142
2012-10-23,80,68,55,63,56,52,94,67,45,30.10,30.04,29.99,10,10,10,10,4,,0.00,1,,146
2012-10-24,82,70,57,68,60,55,100,81,54,30.10,30.04,29.99,10,10,10,9,3,,0.00,2,,129
2012-10-25,80,70,60,64,61,57,88,74,54,30.01,29.97,29.92,10,10,10,13,6,,0.00,3,,147
2012-10-26,55,48,42,52,45,37,100,89,71,30.21,30.14,30.04,10,9,5,16,13,25,0.00,8,Rain,358
2012-10-27,55,47,39,39,37,36,87,70,51,30.20,30.16,30.10,10,10,10,16,11,,0.00,3,,355
2012-10-28,57,47,37,37,36,34,87,69,44,30.20,30.15,30.11,10,10,10,16,11,,0.00,0,,352
2012-10-29,57,46,35,34,32,25,93,65,31,30.27,30.19,30.09,10,10,10,16,8,,0.00,0,,336
2012-10-30,62,48,33,37,31,27,87,58,27,30.08,30.00,29.92,10,10,10,14,6,,0.00,2,,294
2012-10-31,64,50,37,39,36,30,100,67,28,30.01,29.97,29.95,10,10,10,8,1,,0.00,2,,297